Weather History for Buffalo, WY

Change the Weather History Date:

Friday, August 2, 2013

  Actual Average Record
Temperature  
Mean Temperature 70 °F 72 °F  
Max Temperature 82 °F 86 °F 97 °F (1961)
Min Temperature 57 °F 58 °F 49 °F (1999)
Degree Days  
Heating Degree Days 0 1  
Month to date heating degree days 0 2  
Since 1 June heating degree days 101 190  
Since 1 July heating degree days 1 27  
Cooling Degree Days 5 8  
Month to date cooling degree days 14 16  
Year to date cooling degree days 359 277  
Since 1 June cooling degree days 349 270  
Growing Degree Days 19 (Base 50)    
Moisture  
Dew Point 53 °F    
Average Humidity 61    
Maximum Humidity 86    
Minimum Humidity 35    
Precipitation  
Precipitation 0.00 in 0.04 in 0.26 in (1998)
Month to date precipitation 0.05 0.08  
Year to date precipitation 4.24 9.54  
Sea Level Pressure  
Sea Level Pressure 29.92 in    
Wind  
Wind Speed 8 mph (NNW)    
Max Wind Speed 17 mph    
Max Gust Speed 25 mph    
Visibility 10 miles    
Events      
T = Trace of Precipitation, MM = Missing Value Source: NWS Daily Summary

Daily Weather History Graph

Daily Weather History Graph

Search for Another Location

Airport:

Trip Planner

Search our weather history database for the weather conditions in past years. The results will help you decide how hot, cold, wet, or windy it might be!

Date:

Astronomy

Aug. 02, 2013 Rise Set
Actual Time 5:55 AM MDT 8:30 PM MDT
Civil Twilight 5:22 AM MDT 9:03 PM MDT
Nautical Twilight 4:40 AM MDT 9:44 PM MDT
Astronomical Twilight 3:53 AM MDT 10:31 PM MDT
Moon 2:16 AM MDT (8/2) 5:31 PM MDT (8/2)
Length of Visible Light 15h 40m
Length of Day
14h 34m
Waning Crescent, 15% of the Moon is Illuminated
Aug 2
Waning Crescent
Aug 6
New
Aug 14
First Quarter
Aug 20
Full
Aug 28
Last Quarter

Hourly Weather History & Observations

Time (MDT) Temp. Dew Point Humidity Pressure Visibility Wind Dir Wind Speed Gust Speed Precip Events Conditions
12:53 AM 62.1 °F 55.9 °F 80% 29.78 in 10.0 mi NNW 10.4 mph - N/A   Clear
1:53 AM 62.1 °F 54.0 °F 75% 29.79 in 10.0 mi NNW 6.9 mph - N/A   Clear
2:53 AM 62.1 °F 55.0 °F 78% 29.80 in 10.0 mi North 8.1 mph - N/A   Scattered Clouds
3:08 AM 60.8 °F 55.4 °F 82% 30.00 in 10.0 mi North 5.8 mph - N/A   Mostly Cloudy
3:22 AM 60.8 °F 55.4 °F 82% 30.00 in 10.0 mi NNW 8.1 mph - N/A   Overcast
3:53 AM 60.1 °F 55.0 °F 83% 29.82 in 10.0 mi NNW 9.2 mph - N/A   Partly Cloudy
4:53 AM 59.0 °F 53.1 °F 81% 29.85 in 10.0 mi WNW 10.4 mph - N/A   Scattered Clouds
5:18 AM 59.0 °F 53.6 °F 82% 30.02 in 10.0 mi NW 9.2 mph - N/A   Mostly Cloudy
5:38 AM 57.2 °F 53.6 °F 88% 30.04 in 10.0 mi North 6.9 mph - N/A   Overcast
5:53 AM 57.9 °F 54.0 °F 87% 29.86 in 10.0 mi North 10.4 mph - N/A   Overcast
6:03 AM 57.2 °F 53.6 °F 88% 30.02 in 10.0 mi North 8.1 mph - N/A   Overcast
6:27 AM 57.2 °F 53.6 °F 88% 30.02 in 10.0 mi NNW 4.6 mph - N/A   Overcast
6:53 AM 57.9 °F 53.1 °F 84% 29.86 in 10.0 mi Calm Calm - N/A   Mostly Cloudy
7:05 AM 59.0 °F 53.6 °F 82% 30.01 in 10.0 mi Calm Calm - N/A   Scattered Clouds
7:53 AM 61.0 °F 54.0 °F 78% 29.86 in 10.0 mi NE 3.5 mph - N/A   Clear
8:53 AM 63.0 °F 54.0 °F 72% 29.89 in 10.0 mi NE 6.9 mph - N/A   Partly Cloudy
9:07 AM 62.6 °F 53.6 °F 72% 30.04 in 10.0 mi Variable 5.8 mph - N/A   Mostly Cloudy
9:53 AM 63.0 °F 54.0 °F 72% 29.91 in 10.0 mi East 4.6 mph - N/A   Overcast
10:53 AM 66.9 °F 55.0 °F 66% 29.88 in 10.0 mi Variable 5.8 mph - N/A   Scattered Clouds
11:53 AM 70.0 °F 55.0 °F 59% 29.90 in 10.0 mi Calm Calm - N/A   Clear
12:53 PM 75.9 °F 55.0 °F 48% 29.88 in 10.0 mi NE 6.9 mph - N/A   Clear
1:53 PM 77.0 °F 55.0 °F 47% 29.88 in 10.0 mi North 13.8 mph 19.6 mph N/A   Clear
2:53 PM 79.0 °F 55.0 °F 44% 29.88 in 10.0 mi NW 10.4 mph 18.4 mph N/A   Clear
3:53 PM 80.1 °F 52.0 °F 38% 29.88 in 10.0 mi North 10.4 mph 17.3 mph N/A   Clear
4:53 PM 81.0 °F 52.0 °F 36% 29.87 in 10.0 mi NNW 10.4 mph 18.4 mph N/A   Scattered Clouds
5:53 PM 80.1 °F 50.0 °F 35% 29.86 in 10.0 mi North 12.7 mph - N/A   Clear
6:53 PM 78.1 °F 48.9 °F 36% 29.89 in 10.0 mi NNW 13.8 mph 25.3 mph N/A   Clear
7:53 PM 73.9 °F 48.0 °F 40% 29.91 in 10.0 mi NNW 11.5 mph - N/A   Clear
8:53 PM 70.0 °F 48.0 °F 46% 29.95 in 10.0 mi North 8.1 mph - N/A   Partly Cloudy
9:53 PM 70.0 °F 52.0 °F 53% 29.98 in 10.0 mi NW 8.1 mph - N/A   Mostly Cloudy
10:53 PM 68.0 °F 52.0 °F 56% 29.99 in 10.0 mi NNW 6.9 mph - N/A   Mostly Cloudy
11:53 PM 66.9 °F 54.0 °F 63% 29.98 in 10.0 mi NNW 4.6 mph - N/A   Overcast